AirNav   Bose ProFlight Aviation Headset
 
 1027 users online  

57XS Mission MTN Airport
Moran, Texas, USA

GOING TO MORAN?


FAA INFORMATION EFFECTIVE 13 SEPTEMBER 2018

Location

FAA Identifier: 57XS
Lat/Long: 32-29-31.2800N / 099-08-46.2400W
32-29.521333N / 099-08.770667W
32.4920222 / -99.1461778
(estimated)
Elevation: 1443 ft. / 440 m (estimated)
From city: 3 miles S of MORAN, TX
Time zone: UTC -5 (UTC -6 during Standard Time)
Zip code: 76464

Airport Operations

Airport use: Private use. Permission required prior to landing
Activation date: 04/2013
Control tower: no
ARTCC: FORT WORTH CENTER
FSS: FORT WORTH FLIGHT SERVICE STATION
Attendance: UNATNDD
Wind indicator: yes
Segmented circle: no

Airport Communications

WX AWOS-3PT at GZN (10 nm SE): 118.0
WX AWOS-3PT at ETN (18 nm E): 118.45 (254-631-0493)
WX AWOS-3 at BKD (19 nm NE): 120.175 (254-559-5525)

Nearby radio navigation aids

VOR radial/distance  VOR name  Freq  Var
ABIr079/36.3ABILENE VORTAC113.7010E
BWDr337/37.2BROWNWOOD VOR/DME108.6008E
TQAr056/37.3TUSCOLA VOR/DME111.6010E

Airport Services

Runway Information

Runway 18/36

Dimensions: 1850 x 30 ft. / 564 x 9 m
Surface: asphalt
RUNWAY 18  RUNWAY 36
Traffic pattern: leftleft

Airport Ownership and Management from official FAA records

Ownership: Privately-owned
Owner: MILES MOORE
9433 FM 880 N
MORAN, TX 76464
Phone 325-945-2420
Manager: MILES MOORE
9433 FM 880 N
MORAN, TX 76464
Phone 325-945-2420

Airport Operational Statistics

Aircraft based on the field: 1
Single engine airplanes: 1
    

Instrument Procedures

There are no published instrument procedures at 57XS.

Some nearby airports with instrument procedures:

KGZN - Gregory M Simmons Memorial Airport (10 nm SE)
T23 - Albany Municipal Airport (15 nm NW)
KETN - Eastland Municipal Airport (18 nm E)
KBKD - Stephens County Airport (19 nm NE)
KABI - Abilene Regional Airport (28 nm W)
 
Loc | Ops | Rwys | IFR | FBO | Links
Com | Nav | Svcs | Stats | Notes


 
Aerial photo
No photo
 
Airport distance calculator
Flying to Mission MTN Airport? Find the distance to fly.

From to 57XS

Sunrise and sunset
Times for 20-Sep-2018
 Local
(UTC-5)
 Zulu
(UTC)
Morning civil twilight07:0012:00
Sunrise07:2412:24
Sunset19:3600:36
Evening civil twilight20:0001:00

Current date and time
Zulu (UTC)  21-Sep-2018 01:41:03
Local (UTC-5)  20-Sep-2018 20:41:03
 
METAR
KGZN 
10nm SE 
210100Z AUTO 17010KT 3SM RA SCT027 BKN060 OVC075 22/21 A2992 RMK AO2 P0002
KETN 
18nm E 
210115Z AUTO 16011G14KT 10SM -RA SCT065 BKN085 OVC120 23/20 A2992 RMK AO2 T02270205
KBKD 
19nm NE 
210115Z AUTO 16013G18KT 10SM BKN075 OVC085 25/19 A2990 RMK AO2 T02480193
TAF
KABI 
28nm W 
201721Z 2018/2118 18013G23KT P6SM BKN040 BKN080 FM202100 17011KT P6SM VCSH BKN050
NOTAMs
Click for the latest NOTAMs
NOTAMs are issued by the DoD/FAA and will open in a separate window not controlled by AirNav.

 

 
 

Would you like to see your business listed on this page?

 If your business provides an interesting product or service to pilots, flight crews, aircraft, or users of the Mission MTN Airport, you should consider listing it here.  To start the listing process, click on the button below
 
Add a business
 

Other Pages about Mission MTN Airport

Update a link
 
Copyright © AirNav, LLC. All rights reserved. Privacy Policy  Contact